Bookmark and Share
Track history (hours):
 

Bao An Cheng 69

Last reported at 2014-Apr-16 04:24 UTC. Time now 2014-Apr-16 05:27 UTC.
Position N 23°26' E 117°27'.

Length 121 m; draft 6.9 m.

Type: Cargo ship. MMSI: 412703090.

NotesDate/timePositionNaut miles runAvg speedWind from/ knotsBaromVisibWave heightAir tempDewpointWater temp
2014-Apr-16 04:24N 23°26' E 117°27'3010.4
2014-Apr-16 01:32N 23°08' E 117°01'1010.0
2014-Apr-16 00:32N 23°03' E 116°51'174 7.9
2014-Apr-15 02:33N 22°09' E 113°52'9 9.0
2014-Apr-15 01:33N 22°18' E 113°48'8 8.3
2014-Apr-15 00:33N 22°26' E 113°45'8 8.0
2014-Apr-14 23:33N 22°33' E 113°43'9 8.4
2014-Apr-14 22:32N 22°42' E 113°41'9 8.6
2014-Apr-14 21:31N 22°49' E 113°36'8 8.7
2014-Apr-14 20:33N 22°57' E 113°33'8 8.2
2014-Apr-14 19:33N 23°04' E 113°29'2 2.1
2014-Apr-14 18:33N 23°06' E 113°27'0 0.0
2014-Apr-14 14:33N 23°06' E 113°27'0 0.0
2014-Apr-14 13:33N 23°06' E 113°27'0 0.0
2014-Apr-14 10:29N 23°06' E 113°27'10 0.8
2014-Apr-13 22:31N 22°57' E 113°32'8 7.8
2014-Apr-13 21:33N 22°50' E 113°35'8 7.8
2014-Apr-13 20:31N 22°44' E 113°40'8 7.9
2014-Apr-13 19:33N 22°36' E 113°42'8 8.2
2014-Apr-13 18:33N 22°29' E 113°45'9 8.1
2014-Apr-13 17:30N 22°20' E 113°48'8 8.3
2014-Apr-13 16:33N 22°13' E 113°50'10 8.3
2014-Apr-13 15:23N 22°08' E 113°59'1 0.4
2014-Apr-13 12:18N 22°07' E 113°60'0 0.0
2014-Apr-13 09:26N 22°07' E 113°60'0 0.0
2014-Apr-13 07:08N 22°07' E 113°60'0 0.0
2014-Apr-12 22:30N 22°07' E 113°60'0 0.0
2014-Apr-12 21:24N 22°07' E 113°60'0 0.0
2014-Apr-12 19:21N 22°07' E 113°60'0 0.0
2014-Apr-12 17:33N 22°07' E 113°60'0 0.0
2014-Apr-12 15:21N 22°07' E 113°60'0 0.0
2014-Apr-12 14:33N 22°07' E 113°60'140 9.3
2014-Apr-11 23:29N 22°49' E 116°25'11 9.2
2014-Apr-11 22:14N 22°54' E 116°36'6 9.3
2014-Apr-11 21:33N 22°58' E 116°42'10 9.6
2014-Apr-11 20:31N 23°02' E 116°51'1010.0
2014-Apr-11 19:30N 23°08' E 117°01'1010.4
2014-Apr-11 18:30N 23°13' E 117°11'1310.6
2014-Apr-11 17:17N 23°21' E 117°21'810.3
2014-Apr-11 16:32N 23°27' E 117°27'1010.3
2014-Apr-11 15:33N 23°34' E 117°35'10 9.9
2014-Apr-11 14:33N 23°40' E 117°43'10 9.7
2014-Apr-11 13:34N 23°46' E 117°51'11 9.7
2014-Apr-11 12:28N 23°53' E 117°60'9 9.4
2014-Apr-11 11:32N 23°59' E 118°07'9 9.3
2014-Apr-11 10:31N 24°05' E 118°15'9 9.2
2014-Apr-11 09:30N 24°12' E 118°23'13 9.5
2014-Apr-11 08:09N 24°20' E 118°33'9 9.4
2014-Apr-11 07:10N 24°26' E 118°41'6 9.5
2014-Apr-11 06:33N 24°30' E 118°45'1010.0
2014-Apr-11 05:33N 24°37' E 118°54'1010.2
2014-Apr-11 04:34N 24°44' E 119°02'1110.3
2014-Apr-11 03:32N 24°50' E 119°11'5510.6
2014-Apr-10 22:25N 25°28' E 119°54'18310.1
2014-Apr-10 04:23N 28°02' E 121°44'810.0
2014-Apr-10 03:33N 28°09' E 121°49'39 9.8
2014-Apr-09 23:32N 28°46' E 122°06'10 9.8
2014-Apr-09 22:30N 28°55' E 122°10'9 9.6
2014-Apr-09 21:33N 29°04' E 122°14'10 9.6
2014-Apr-09 20:33N 29°13' E 122°17'10 9.8
2014-Apr-09 19:32N 29°22' E 122°22'1010.0
2014-Apr-09 18:33N 29°31' E 122°25'1110.2
2014-Apr-09 17:31N 29°41' E 122°30'1110.1
2014-Apr-09 16:24N 29°52' E 122°34'1010.3
2014-Apr-09 15:29N 30°01' E 122°36'1010.2
2014-Apr-09 14:30N 30°11' E 122°36'19 9.8
2014-Apr-09 12:33N 30°30' E 122°31'9 9.3
2014-Apr-09 11:32N 30°37' E 122°24'41 8.1
2014-Apr-09 06:30N 31°08' E 121°54'9 9.4
2014-Apr-09 05:32N 31°15' E 121°46'9 9.2
2014-Apr-09 04:33N 31°21' E 121°39'7 7.4
2014-Apr-09 03:33N 31°23' E 121°30'2 1.7
2014-Apr-09 02:33N 31°21' E 121°30'0 0.0
2014-Apr-09 01:32N 31°21' E 121°30'0 0.0
2014-Apr-09 00:26N 31°21' E 121°30'0 0.0
2014-Apr-08 20:07N 31°21' E 121°30'0 0.0
2014-Apr-08 19:25N 31°21' E 121°30'0 0.0
2014-Apr-08 18:31N 31°21' E 121°30'0 0.0
2014-Apr-08 17:19N 31°21' E 121°30'0 0.0
2014-Apr-08 15:25N 31°21' E 121°30'0 0.1
2014-Apr-08 14:32N 31°21' E 121°30'2 2.5
2014-Apr-08 13:33N 31°24' E 121°31'8 7.7
2014-Apr-08 12:32N 31°21' E 121°40'9 9.5
2014-Apr-08 11:33N 31°14' E 121°47'29 9.4
2014-Apr-08 08:27N 30°59' E 122°16'2 0.4
2014-Apr-08 03:23N 30°57' E 122°18'9 9.3
2014-Apr-08 02:24N 30°48' E 122°19'8 8.9
2014-Apr-08 01:30N 30°40' E 122°21'10 8.4
2014-Apr-08 00:20N 30°32' E 122°28'10 9.4
2014-Apr-07 23:17N 30°24' E 122°34'910.4
2014-Apr-07 22:24N 30°15' E 122°36'1010.5
2014-Apr-07 21:29N 30°05' E 122°36'1110.7
2014-Apr-07 20:29N 29°54' E 122°35'1010.8
2014-Apr-07 19:33N 29°45' E 122°32'2110.6
2014-Apr-07 17:33N 29°25' E 122°23'245 9.3
2014-Apr-06 15:11N 26°00' E 119°51'  

Dump ship's entire track history

sailing weather and tide predictions

Bao An Cheng 69 — BVBD5 — position and weather